[[{"header":{"parameterUnit":"m.s-1","parameterCategory":1,"la1":30.2991,"la2":30.254,"lo1":-89.0895,"lo2":-89.0444,"dy":0.0017,"dx":0.0017,"nx":28,"ny":28,"refTime":"2023-06-27T21:00:00:Z","depth":0,"parameterNumber":2,"parameterNumberName":"U-component_of_WINDS"},"data":[0,0,0,0,0,0,0,0,0,0,0,0,0,0,0,0,0,0,0,0,0,0,0,0,0,0,0,0,0,0,0,0,0,0,0,0,0,0,0,0,0,0,0,0,0,0,0,0,0,0,0,0,0,0,0,0,0,0,1.9426,1.9427,0,1.9455,1.9455,1.9455,1.9423,1.9422,1.9421,1.942,1.9443,1.9444,1.9446,0,0,0,0,0,0,0,0,0,0,0,0,0,1.9341,1.9343,1.9426,1.9427,1.9427,1.9455,1.9455,1.9455,1.9424,1.9422,1.9421,1.9419,1.9442,1.9444,1.9446,0,0,0,0,0,0,0,0,0,0,0,0,0,1.9375,1.9344,1.9426,1.9415,1.9414,1.9454,1.9455,1.9455,1.9424,1.9422,1.942,1.9419,1.9441,1.9444,1.9446,1.9498,0,0,1.9454,1.9455,0,0,0,0,0,0,0,0,1.9373,1.9378,1.9416,1.9416,1.9415,1.9434,1.9433,1.9469,1.9424,1.942,1.942,1.9418,1.9441,1.9443,1.9452,1.9499,1.95,1.9454,1.9456,1.9457,1.9458,0,0,0,0,0,0,0,1.9371,1.9376,1.9437,1.9417,1.9416,1.9407,1.941,1.944,1.944,1.942,1.9418,1.9422,1.944,1.945,1.9452,1.95,1.9454,1.9457,1.9458,1.9459,1.9592,1.9594,0,0,0,0,0,0,1.937,1.9375,1.9436,1.9438,1.9389,1.941,1.9413,1.9429,1.9439,1.9439,1.9424,1.9421,1.9446,1.945,1.9453,1.9515,1.9457,1.9459,1.9461,1.959,1.9592,1.9594,0,0,0,0,0,0,1.9369,1.9376,1.9435,1.9406,1.9413,1.9413,1.9432,1.9431,1.9441,1.9442,1.9441,1.9434,1.9445,1.945,1.9488,1.9515,1.9461,1.9463,1.9587,1.959,1.9593,1.9637,0,0,0,0,0,0,1.9366,1.9376,1.9396,1.9407,1.9415,1.947,1.9434,1.9433,1.9446,1.9442,1.9451,1.9451,1.9444,1.9484,1.949,1.9517,1.9465,1.9585,1.9589,1.9592,1.9633,1.9641,1.9648,0,0,0,0,0,1.9363,1.9405,1.9397,1.9404,1.944,1.9472,1.9476,1.9469,1.9448,1.9468,1.9469,1.9451,1.9512,1.9488,1.9495,1.9523,1.9583,1.9588,1.9592,1.963,1.964,1.9648,0,0,0,0,0,0,1.9393,1.9406,1.9397,1.9444,1.9458,1.9467,1.9491,1.9479,1.9497,1.9492,1.9481,1.9483,1.9524,1.9528,1.9501,1.9574,1.9544,1.955,1.957,1.958,1.9587,1.9585,1.9467,0,0,0,0,0,1.9406,1.9433,1.9442,1.9482,1.949,1.949,1.9503,1.9497,1.951,1.9515,1.9519,1.953,1.9552,1.9566,1.9586,1.9635,1.9636,1.9658,1.9665,1.9671,1.9676,1.9703,1.9713,1.9609,1.9609,1.9609,0,0,1.9431,1.9442,1.9459,1.9489,1.9499,1.9526,1.9495,1.9524,1.9543,1.9518,1.9555,1.9559,1.9571,1.9615,1.9635,1.9619,1.9706,1.9677,1.9682,1.9683,1.9709,1.9718,1.9727,1.9612,1.9611,1.9611,0,0,1.9491,1.9502,1.9538,1.955,1.9567,1.9567,1.9576,1.9588,1.959,1.9628,1.961,1.9633,1.967,1.968,1.969,1.9759,1.9743,1.9766,1.9804,1.9831,1.9839,1.9846,1.987,1.9879,1.9771,1.9771,1.9771,0,1.9519,1.9561,1.9557,1.9589,1.9603,1.9586,1.9622,1.9632,1.9654,1.9663,1.9647,1.9695,1.9702,1.9749,1.9766,1.9775,1.9784,1.9763,1.9838,1.9846,1.9852,1.9875,1.9884,1.9774,1.9773,1.9773,1.9773,0,1.9596,1.9625,1.9652,1.9677,1.9694,1.9728,1.9728,1.9746,1.9739,1.9741,1.978,1.9789,1.9811,1.9822,1.9814,1.9868,1.9858,1.9841,1.9809,1.9865,1.9886,1.9895,1.9778,1.9777,1.9776,1.9775,0,0,1.967,1.9697,1.9707,1.9719,1.9739,1.9761,1.9794,1.9819,1.9835,1.9851,1.9878,1.9913,1.9897,1.9909,1.9902,1.9926,1.998,1.9905,1.9905,1.9918,2.0041,2.0054,2.0064,1.9971,1.9973,1.9974,2.004,0,1.9731,1.9792,1.9791,1.9846,1.9874,1.986,1.989,1.9904,1.9908,1.9931,1.9934,1.9958,1.9936,1.9943,1.9966,1.9969,2.0005,1.9964,1.9995,1.9996,1.9991,2.0075,2.0088,2.015,2.0048,2.005,2.0051,0,1.9808,1.9831,1.9891,1.991,1.9921,1.9948,1.9972,1.9995,2.0011,2.0012,2.0028,2.0019,2.0052,2.0022,2.0067,2.004,2.0053,2.0056,2.0059,2.006,2.0025,2.0078,2.0169,2.0178,2.0064,2.0063,2.0062,0,1.9857,1.9903,1.9945,1.9956,1.9979,1.9998,2.0008,2.0024,2.004,2.006,2.0071,2.0094,2.0106,2.0124,2.0121,2.01,2.0168,2.0137,2.0169,2.0169,2.0181,2.018,2.0275,2.0192,2.0192,2.0192,2.0191,0,1.9923,1.996,1.9968,1.9994,2.0035,2.0034,2.0074,2.0082,2.0097,2.0123,2.0112,2.0136,2.0132,2.0156,2.0154,2.0193,2.0198,2.0199,2.0198,2.0199,2.0199,2.0206,2.0201,2.0194,2.0194,2.0193,2.0193,0,1.9983,1.999,2.0036,2.0056,2.0062,2.0091,2.0107,2.0131,2.0136,2.0169,2.0177,2.0183,2.0212,2.0212,2.0243,2.0242,2.0289,2.0283,2.0284,2.0282,2.0313,2.031,2.0415,2.0428,2.0337,2.0338,2.0339,0,2.0024,2.0053,2.0078,2.0097,2.0109,2.0138,2.0156,2.0157,2.0176,2.0199,2.0221,2.0249,2.0271,2.0317,2.0323,2.0347,2.0341,2.0377,2.0344,2.0346,2.0341,2.0339,2.0342,2.0382,2.0383,2.0384,2.0384,0,2.0096,2.01,2.0127,2.0157,2.018,2.0203,2.0223,2.0239,2.0242,2.0264,2.0295,2.0313,2.0347,2.0375,2.0399,2.0407,2.0396,2.0395,2.0404,2.0404,2.0404,2.0404,2.03,2.0392,2.0391,2.0391,2.039,2.039,2.0147,2.0173,2.0196,2.0228,2.0245,2.0266,2.0291,2.0301,2.0328,2.0358,2.0357,2.0391,2.0409,2.0441,2.0452,2.0478,2.0465,2.0477,2.048,2.0483,2.0486,2.0402,2.0482,2.0482,2.0482,2.0482,2.0481,0,2.0218,2.0234,2.0264,2.0296,2.0321,2.0314,2.0337,2.0358,2.039,2.0409,2.0433,2.0469,2.0497,2.0508,2.0535,2.0553,2.0549,2.056,2.0558,2.056,2.0496,2.0486,2.0563,2.0563,2.0563,2.0563,2.0563,2.0563,2.0258,2.0302,2.0309,2.0362,2.0377,2.0413,2.0428,2.0447,2.0463,2.0505,2.053,2.0538,2.0554,2.0583,2.0608,2.061,2.062,2.0633,2.0633,2.0572,2.0564,2.0556,2.0547,2.0635,2.0636,2.0694,2.0695,2.0695]},{"header":{"parameterUnit":"m.s-1","parameterCategory":1,"la1":30.2991,"la2":30.254,"lo1":-89.0895,"lo2":-89.0444,"dy":0.0017,"dx":0.0017,"nx":28,"ny":28,"refTime":"2023-06-27T21:00:00:Z","depth":0,"parameterNumber":3,"parameterNumberName":"V-component_of_WINDS"},"data":[0,0,0,0,0,0,0,0,0,0,0,0,0,0,0,0,0,0,0,0,0,0,0,0,0,0,0,0,0,0,0,0,0,0,0,0,0,0,0,0,0,0,0,0,0,0,0,0,0,0,0,0,0,0,0,0,0,0,-2.8718,-2.8721,0,-2.8998,-2.9001,-2.9004,-2.9058,-2.9056,-2.9053,-2.9051,-2.9336,-2.9346,-2.9355,0,0,0,0,0,0,0,0,0,0,0,0,0,-2.8232,-2.8241,-2.8718,-2.8722,-2.8725,-2.8997,-2.9001,-2.9005,-2.9058,-2.9056,-2.9053,-2.905,-2.9333,-2.9345,-2.9356,0,0,0,0,0,0,0,0,0,0,0,0,0,-2.8471,-2.8244,-2.8717,-2.8785,-2.8793,-2.8996,-2.9001,-2.9006,-2.9059,-2.9055,-2.9052,-2.9049,-2.933,-2.9344,-2.9358,-2.9513,0,0,-2.9402,-2.9408,0,0,0,0,0,0,0,0,-2.8457,-2.8488,-2.8771,-2.878,-2.8791,-2.899,-2.8934,-2.9176,-2.906,-2.8958,-2.9051,-2.9047,-2.9224,-2.9247,-2.9306,-2.9527,-2.9539,-2.9403,-2.9412,-2.9418,-2.9422,0,0,0,0,0,0,0,-2.844,-2.8477,-2.8829,-2.8775,-2.8787,-2.8801,-2.8831,-2.898,-2.9106,-2.8967,-2.8971,-2.9004,-2.9228,-2.9292,-2.9313,-2.9543,-2.9403,-2.9416,-2.9425,-2.943,-2.991,-2.9914,0,0,0,0,0,0,-2.8412,-2.8462,-2.882,-2.8837,-2.8612,-2.8813,-2.8846,-2.8929,-2.9104,-2.9128,-2.9006,-2.9005,-2.9269,-2.9296,-2.9324,-2.9522,-2.9418,-2.9432,-2.944,-2.9906,-2.9911,-2.9915,0,0,0,0,0,0,-2.8401,-2.8443,-2.8809,-2.8651,-2.8699,-2.8824,-2.8917,-2.8936,-2.9,-2.9134,-2.9157,-2.9048,-2.9268,-2.9303,-2.9467,-2.9532,-2.9438,-2.9452,-2.9901,-2.9907,-2.9913,-2.9916,0,0,0,0,0,0,-2.8387,-2.8439,-2.8499,-2.8652,-2.8707,-2.8947,-2.8921,-2.8944,-2.9025,-2.9026,-2.918,-2.9202,-2.9268,-2.9445,-2.9481,-2.955,-2.9463,-2.9896,-2.9904,-2.9911,-2.991,-2.9921,-2.993,0,0,0,0,0,-2.837,-2.8488,-2.8502,-2.8545,-2.8785,-2.8951,-2.8982,-2.9055,-2.903,-2.9093,-2.9179,-2.9197,-2.9518,-2.9461,-2.9503,-2.9577,-2.9892,-2.9902,-2.991,-2.9906,-2.9919,-2.993,0,0,0,0,0,0,-2.8339,-2.8509,-2.8527,-2.8698,-2.8809,-2.8959,-2.904,-2.9066,-2.9187,-2.9183,-2.9268,-2.9303,-2.9462,-2.9535,-2.9469,-2.9739,-2.9704,-2.9721,-2.9686,-2.97,-2.9709,-2.969,-2.9475,0,0,0,0,0,-2.8352,-2.8472,-2.8614,-2.8751,-2.8807,-2.8913,-2.8988,-2.9035,-2.9154,-2.9202,-2.93,-2.9415,-2.9542,-2.9624,-2.9748,-2.992,-2.9956,-2.9991,-3.0001,-3.0008,-3.0024,-3.0125,-3.0143,-2.9945,-2.9945,-2.9945,0,0,-2.838,-2.8488,-2.8559,-2.8748,-2.884,-2.8965,-2.8953,-2.9084,-2.9177,-2.9221,-2.9384,-2.946,-2.9593,-2.9763,-2.9843,-2.9829,-3.0086,-3.002,-3.0025,-3.0037,-3.0136,-3.0155,-3.0171,-2.9951,-2.995,-2.9949,0,0,-2.8497,-2.8588,-2.8715,-2.8808,-2.8948,-2.9019,-2.9049,-2.9196,-2.9248,-2.9412,-2.9449,-2.9561,-2.9777,-2.9872,-2.9949,-3.0102,-3.0126,-3.014,-3.0193,-3.029,-3.0306,-3.0321,-3.038,-3.04,-3.0154,-3.0154,-3.0154,0,-2.8515,-2.8703,-2.8777,-2.8908,-2.8992,-2.9037,-2.9168,-2.9254,-2.9427,-2.9484,-2.9465,-2.974,-2.9833,-3.0028,-3.0065,-3.0124,-3.0164,-3.0125,-3.0298,-3.0313,-3.0328,-3.0385,-3.0407,-3.0155,-3.0155,-3.0155,-3.0155,0,-2.8721,-2.8851,-2.8936,-2.9104,-2.9197,-2.9326,-2.9421,-2.9506,-2.9544,-2.9617,-2.9785,-2.9897,-3.0047,-3.0095,-3.0133,-3.0297,-3.0285,-3.028,-3.0248,-3.0347,-3.0403,-3.0425,-3.0157,-3.0157,-3.0156,-3.0156,0,0,-2.8828,-2.9036,-2.9066,-2.9145,-2.9303,-2.9405,-2.9537,-2.9684,-2.9757,-2.9874,-2.999,-3.0172,-3.017,-3.0257,-3.0306,-3.039,-3.0511,-3.0377,-3.0381,-3.0402,-3.0703,-3.0709,-3.0733,-3.0525,-3.0529,-3.0533,-3.0693,0,-2.8968,-2.9207,-2.9277,-2.9478,-2.9602,-2.9647,-2.9762,-2.9872,-2.9943,-3.0059,-3.0136,-3.0267,-3.0252,-3.0306,-3.0391,-3.0478,-3.0573,-3.0466,-3.0636,-3.0641,-3.0606,-3.0761,-3.0768,-3.0914,-3.0715,-3.0719,-3.0721,0,-2.9163,-2.9286,-2.95,-2.9645,-2.9699,-2.9802,-2.9945,-3.0053,-3.0179,-3.0225,-3.0322,-3.0365,-3.0506,-3.0461,-3.0659,-3.0585,-3.0658,-3.0711,-3.0718,-3.0741,-3.0691,-3.0793,-3.0962,-3.0986,-3.0756,-3.0753,-3.075,0,-2.9227,-2.9445,-2.9603,-2.9667,-2.9839,-2.9911,-2.9986,-3.0108,-3.0193,-3.0316,-3.0373,-3.051,-3.0587,-3.0693,-3.0771,-3.0731,-3.0964,-3.0925,-3.1009,-3.1007,-3.106,-3.1056,-3.1248,-3.1097,-3.1097,-3.1096,-3.1096,0,-2.9379,-2.9509,-2.9634,-2.9731,-2.9879,-2.9959,-3.0103,-3.018,-3.0289,-3.0403,-3.0448,-3.0554,-3.0649,-3.0768,-3.0829,-3.0986,-3.1018,-3.1062,-3.1078,-3.1061,-3.1056,-3.1114,-3.1108,-3.1102,-3.1101,-3.11,-3.1099,0,-2.9477,-2.9565,-2.9741,-2.9889,-2.993,-3.0033,-3.016,-3.0257,-3.0329,-3.0473,-3.0511,-3.0625,-3.0768,-3.0855,-3.1035,-3.1077,-3.1251,-3.126,-3.121,-3.1218,-3.1299,-3.1292,-3.1539,-3.1577,-3.1395,-3.1397,-3.1398,0,-2.9571,-2.9673,-2.9833,-2.9913,-2.9989,-3.0116,-3.0204,-3.0285,-3.0374,-3.0526,-3.0606,-3.0751,-3.0873,-3.1098,-3.1198,-3.1336,-3.1353,-3.1429,-3.1374,-3.1355,-3.1361,-3.1356,-3.1369,-3.144,-3.1441,-3.1443,-3.1444,0,-2.973,-2.9769,-2.9894,-3.0035,-3.0138,-3.0252,-3.0366,-3.0428,-3.053,-3.0628,-3.0775,-3.0869,-3.1054,-3.1199,-3.1347,-3.1424,-3.1453,-3.1459,-3.1488,-3.1475,-3.1444,-3.1467,-3.1241,-3.1455,-3.1454,-3.1453,-3.1452,-3.1452,-2.9834,-2.9928,-3.0056,-3.0194,-3.0288,-3.0394,-3.0494,-3.0579,-3.0703,-3.0861,-3.09,-3.1056,-3.1181,-3.1382,-3.1463,-3.1586,-3.1575,-3.1613,-3.1625,-3.1634,-3.1639,-3.1419,-3.1612,-3.1612,-3.1612,-3.1611,-3.1611,0,-3.0001,-3.0085,-3.0211,-3.037,-3.0479,-3.0494,-3.0621,-3.0712,-3.0848,-3.0962,-3.1081,-3.1251,-3.1393,-3.1502,-3.1648,-3.1726,-3.1743,-3.1762,-3.176,-3.1778,-3.1638,-3.1602,-3.1746,-3.1746,-3.1746,-3.1746,-3.1746,-3.1746,-3.0101,-3.0263,-3.0317,-3.0526,-3.061,-3.0763,-3.0835,-3.0934,-3.1026,-3.1214,-3.1332,-3.1403,-3.1516,-3.167,-3.1801,-3.183,-3.1884,-3.1902,-3.1933,-3.1802,-3.1787,-3.1774,-3.1741,-3.1911,-3.1911,-3.2064,-3.2066,-3.2067]}]]